User: anonymous   Login
Location: Unspecified
(0.0000°N, 0.0000°E)
Time: 19:04:32
(UTC+00:00)
Language:

Cosmos 1570 - Orbit

View from above orbital plane
View from above orbital plane
View from above satellite
View from above satellite

Ground track
Ground track

The orbit data is extracted from the following two-line orbital elements,

1 15031U 84056A   18016.57908670 -.00000001  00000-0  92663-5 0  9994
2 15031  74.0681 125.7320 0013851 245.3052 214.1692 14.31727685754743
Epoch (UTC): 16 January 2018 13:53:53
Eccentricity: 0.0013851
inclination: 74.0681°
perigee height: 776 km
apogee height: 796 km
right ascension of ascending node: 125.7320°
argument of perigee: 245.3052°
revolutions per day: 14.31727685
mean anomaly at epoch: 214.1692°
orbit number at epoch: 75474

The dashed part of the orbit path shows where the satellite is in the earth's shadow,  

DLR